Pullman, WA

1:59 AM PDT on July 24, 2017 (GMT -0700)
Pullman-Moscow Regional

Weather History for KPUW - October, 2013

Change the Weather History Date:

Friday, October 4, 2013

  Actual Average Record
Temperature  
Mean Temperature 43 °F 52 °F  
Max Temperature 58 °F 65 °F 87 °F (1943)
Min Temperature 28 °F 38 °F 24 °F (2012)
Degree Days  
Heating Degree Days 22 13  
Month to date heating degree days 82 51  
Since 1 July heating degree days 301 412  
Cooling Degree Days 0 0  
Month to date cooling degree days 0 0  
Year to date cooling degree days 334 212  
Moisture  
Dew Point 28 °F    
Average Humidity 57    
Maximum Humidity 85    
Minimum Humidity 28    
Precipitation  
Precipitation 0.00 in 0.03 in 0.58 in (1955)
Month to date precipitation T 0.13  
Year to date precipitation 11.54 11.82  
Sea Level Pressure  
Sea Level Pressure 30.51 in    
Wind  
Wind Speed 2 mph (ENE)    
Max Wind Speed 9 mph    
Max Gust Speed 13 mph    
Visibility 10 miles    
Events      
T = Trace of Precipitation, MM = Missing Value Source: NWS Daily Summary

Daily Weather History Graph

Daily Weather History Graph

Search for Another Location

Airport or City:

Trip Planner

Search our weather history database for the weather conditions in past years. The results will help you decide how hot, cold, wet, or windy it might be!

Date:

Astronomy

Oct. 04, 2013 Rise Set
Actual Time 6:51 AM PDT 6:21 PM PDT
Civil Twilight 6:21 AM PDT 6:51 PM PDT
Nautical Twilight 5:46 AM PDT 7:26 PM PDT
Astronomical Twilight 5:10 AM PDT 8:02 PM PDT
Moon 6:32 AM PDT (10/4) 6:04 PM PDT (10/4)
Length of Visible Light 12h 30m
Length of Day
11h 30m
Waning Crescent, 0% of the Moon is Illuminated
Oct 4
Waning Crescent
Oct 4
New
Oct 11
First Quarter
Oct 18
Full
Oct 26
Last Quarter

Hourly Weather History & Observations

Time (PDT) Temp. Windchill Dew Point Humidity Pressure Visibility Wind Dir Wind Speed Gust Speed Precip Events Conditions
12:53 AM 33.1 °F - 28.9 °F 85% 30.46 in 9.0 mi Calm Calm - N/A   Clear
1:53 AM 32.0 °F - 28.0 °F 85% 30.48 in 10.0 mi Calm Calm - N/A   Clear
2:53 AM 30.0 °F - 26.1 °F 85% 30.49 in 10.0 mi Calm Calm - N/A   Clear
3:53 AM 30.0 °F - 26.1 °F 85% 30.49 in 10.0 mi Calm Calm - N/A   Clear
4:53 AM 28.9 °F - 25.0 °F 85% 30.51 in 10.0 mi Calm Calm - N/A   Clear
5:53 AM 30.0 °F - 25.0 °F 82% 30.52 in 10.0 mi Calm Calm - N/A   Clear
6:53 AM 34.0 °F 28.0 °F 28.0 °F 79% 30.53 in 10.0 mi ENE 6.9 mph - N/A   Clear
7:53 AM 36.0 °F 31.1 °F 28.9 °F 76% 30.54 in 10.0 mi NE 5.8 mph - N/A   Clear
8:53 AM 42.1 °F 37.7 °F 34.0 °F 73% 30.54 in 10.0 mi East 6.9 mph - N/A   Clear
9:53 AM 46.0 °F - 35.1 °F 66% 30.56 in 10.0 mi Calm Calm - N/A   Clear
10:53 AM 50.0 °F - 30.9 °F 48% 30.56 in 10.0 mi East 3.5 mph - N/A   Clear
11:53 AM 53.1 °F - 30.0 °F 41% 30.55 in 10.0 mi WNW 3.5 mph - N/A   Clear
12:53 PM 55.0 °F - 26.1 °F 33% 30.55 in 10.0 mi Calm Calm - N/A   Clear
1:53 PM 55.9 °F - 26.1 °F 32% 30.53 in 10.0 mi Calm Calm - N/A   Clear
2:53 PM 57.0 °F - 26.1 °F 30% 30.51 in 10.0 mi ENE 3.5 mph - N/A   Clear
3:53 PM 57.0 °F - 25.0 °F 29% 30.50 in 10.0 mi Variable 4.6 mph - N/A   Clear
4:53 PM 57.0 °F - 25.0 °F 29% 30.49 in 10.0 mi Calm Calm - N/A   Clear
5:53 PM 53.1 °F - 28.9 °F 40% 30.48 in 10.0 mi Calm Calm - N/A   Clear
6:53 PM 45.0 °F - 28.9 °F 53% 30.50 in 10.0 mi Calm Calm - N/A   Clear
7:53 PM 41.0 °F - 30.0 °F 65% 30.50 in 9.0 mi Calm Calm - N/A   Clear
8:53 PM 39.0 °F - 28.9 °F 67% 30.51 in 10.0 mi Calm Calm - N/A   Clear
9:53 PM 37.9 °F - 28.9 °F 70% 30.50 in 10.0 mi Calm Calm - N/A   Clear
10:53 PM 36.0 °F - 28.0 °F 73% 30.49 in 10.0 mi Calm Calm - N/A   Clear
11:53 PM 41.0 °F 37.1 °F 27.0 °F 57% 30.46 in 10.0 mi ENE 5.8 mph - N/A   Clear